This is the latest recevied weather packets stored in our database for station/object LA9TLA-1. If no packets are shown the sender has not sent any weather packets the latest 10 day(s).
| Time | Temp. | Humidity | Pressure | Rain* | Wind** | Luminosity | Snow |
|---|---|---|---|---|---|---|---|
| 1788285903 | 15° C | 99% | 1000.4 hPa | 0 mm | - | - | - |
| 1788284102 | 15° C | 85% | 1000.8 hPa | 0 mm | - | - | - |
| 1788282303 | 15° C | 52% | 1001.1 hPa | 0 mm | - | - | - |
| 1788280502 | 16.67° C | 26% | 1001.2 hPa | 0 mm | - | - | - |
| 1788278700 | 16.67° C | 39% | 1001.1 hPa | 0 mm | - | - | - |
| 1788276903 | 16.67° C | 80% | 1001 hPa | 0 mm | - | - | - |
| 1788271502 | 15° C | 99% | 1001.2 hPa | 0 mm | - | - | - |
| 1788269702 | 16.67° C | 99% | 1001.1 hPa | 0 mm | - | - | - |
| 1788267902 | 17.78° C | 24% | 1000.9 hPa | 0 mm | - | - | - |
| 1788262501 | 18.89° C | 11% | 1001 hPa | 0 mm | - | - | - |
| 1788260702 | 17.22° C | 32% | 1000.9 hPa | 0 mm | - | - | - |
| 1788258902 | 17.22° C | 26% | 1000.8 hPa | 0 mm | - | - | - |
| 1788257101 | 17.22° C | 39% | 1001 hPa | 0 mm | - | - | - |
| 1788255301 | 17.78° C | 53% | 1000.8 hPa | 0 mm | - | - | - |
| 1788253501 | 16.67° C | 83% | 1000.7 hPa | 0 mm | - | - | - |
| 1788249902 | 15° C | 99% | 1000.8 hPa | 0 mm | - | - | - |
| 1788248102 | 14.44° C | 99% | 1000.6 hPa | 0 mm | - | - | - |
| 1788246302 | 14.44° C | 99% | 1000.5 hPa | 0 mm | - | - | - |
| 1788244502 | 14.44° C | 99% | 1000.3 hPa | 0 mm | - | - | - |
| 1788242702 | 15.56° C | 99% | 1000.1 hPa | 0 mm | - | - | - |
| 1788240901 | 13.89° C | 99% | 1000.1 hPa | 0 mm | - | - | - |
| 1788239102 | 12.22° C | 99% | 1000 hPa | 0 mm | - | - | - |
| 1788219302 | 13.33° C | 99% | 999 hPa | 0 mm | - | - | - |
| 1788212102 | 13.89° C | 99% | 998.5 hPa | 0 mm | - | - | - |
| 1788210301 | 13.89° C | 99% | 998.2 hPa | 0 mm | - | - | - |
* Rain latest hour (hover to see other rain measurements)
** Current wind speed in m/s (hover to see current wind gust speed)